| time (UTC) | temp F | wind direction | speed MPH | gust MPH | rain 1hr in | rain 24hr in | rain mn in | humidity % | barometer mb |
| 20260509061105 | 78 | 224 | 0.0 | 1.0 | 0.00 | 0.00 | 0.00 | 98 | 1003.9 |
| 20260509060603 | 78 | 23 | 0.0 | 0.0 | 0.00 | 0.00 | 0.00 | 97 | 1004.2 |
| 20260509060058 | 78 | 268 | 0.0 | 0.0 | 0.00 | 0.00 | 0.00 | 97 | 1004.3 |
| 20260509055554 | 78 | 246 | 0.0 | 0.0 | 0.00 | 0.00 | 0.00 | 97 | 1004.3 |
| 20260509055050 | 78 | 269 | 0.0 | 0.0 | 0.00 | 0.00 | 0.00 | 97 | 1004.6 |
| 20260509054547 | 78 | 201 | 0.0 | 0.0 | 0.00 | 0.00 | 0.00 | 97 | 1004.9 |
| 20260509054045 | 78 | 202 | 0.0 | 0.0 | 0.00 | 0.00 | 0.00 | 97 | 1004.9 |
| 20260509053543 | 78 | 148 | 0.0 | 0.0 | 0.00 | 0.00 | 0.00 | 97 | 1004.9 |
| 20260509053040 | 78 | 194 | 0.0 | 0.0 | 0.00 | 0.00 | 0.00 | 97 | 1004.9 |
| 20260509052538 | 78 | 200 | 0.0 | 0.0 | 0.00 | 0.00 | 0.00 | 97 | 1004.8 |
| 20260509052035 | 78 | 215 | 0.0 | 0.0 | 0.00 | 0.00 | 0.00 | 97 | 1004.7 |
| 20260509051533 | 78 | 233 | 0.0 | 0.0 | 0.00 | 0.00 | 0.00 | 97 | 1004.5 |
| 20260509051030 | 78 | 158 | 1.0 | 2.0 | 0.00 | 0.00 | 0.00 | 97 | 1004.5 |
| 20260509050527 | 78 | 211 | 0.0 | 0.0 | 0.00 | 0.00 | 0.00 | 97 | 1004.3 |
| 20260509050023 | 78 | 206 | 0.0 | 0.0 | 0.00 | 0.00 | 0.00 | 96 | 1004.6 |
| 20260509045520 | 78 | 192 | 0.0 | 1.0 | 0.00 | 0.00 | 0.00 | 96 | 1004.7 |
| 20260509045017 | 78 | 215 | 0.0 | 0.0 | 0.00 | 0.00 | 0.00 | 96 | 1004.8 |
| 20260509044515 | 78 | 213 | 0.0 | 0.0 | 0.00 | 0.00 | 0.00 | 96 | 1004.7 |
| 20260509044013 | 78 | 208 | 0.0 | 0.0 | 0.00 | 0.00 | 0.00 | 96 | 1004.9 |
| 20260509043508 | 78 | 212 | 0.0 | 0.0 | 0.00 | 0.00 | 0.00 | 96 | 1005.0 |
| 20260509043005 | 78 | 211 | 0.0 | 0.0 | 0.00 | 0.00 | 0.00 | 95 | 1004.7 |
| 20260509042501 | 78 | 208 | 0.0 | 0.0 | 0.00 | 0.00 | 0.00 | 95 | 1004.7 |
| 20260509041956 | 78 | 220 | 1.0 | 1.0 | 0.00 | 0.00 | 0.00 | 95 | 1004.4 |
| 20260509041454 | 78 | 211 | 0.0 | 0.0 | 0.00 | 0.00 | 0.00 | 95 | 1004.5 |
| 20260509040952 | 78 | 238 | 1.0 | 1.0 | 0.00 | 0.00 | 0.00 | 95 | 1004.5 |
| 20260509040449 | 78 | 200 | 0.0 | 0.0 | 0.00 | 0.00 | 0.00 | 95 | 1004.7 |
| 20260509035946 | 78 | 207 | 0.0 | 0.0 | 0.00 | 0.00 | 0.00 | 95 | 1004.8 |
| 20260509035443 | 78 | 214 | 0.0 | 0.0 | 0.00 | 0.00 | 0.00 | 95 | 1004.6 |
| 20260509034939 | 78 | 206 | 0.0 | 0.0 | 0.00 | 0.00 | 0.00 | 95 | 1004.4 |
| 20260509034437 | 78 | 82 | 1.0 | 3.0 | 0.00 | 0.00 | 0.00 | 95 | 1004.5 |
| 20260509033934 | 78 | 200 | 1.0 | 2.0 | 0.00 | 0.00 | 0.00 | 95 | 1004.3 |
| 20260509033431 | 78 | 184 | 0.0 | 1.0 | 0.00 | 0.00 | 0.00 | 95 | 1004.6 |
| 20260509032928 | 78 | 186 | 1.0 | 1.0 | 0.00 | 0.00 | 0.00 | 95 | 1004.3 |
| 20260509032425 | 78 | 194 | 0.0 | 0.0 | 0.00 | 0.00 | 0.00 | 95 | 1004.0 |
| 20260509031923 | 78 | 190 | 2.0 | 4.0 | 0.00 | 0.00 | 0.00 | 95 | 1003.7 |
| 20260509031420 | 78 | 197 | 0.0 | 0.0 | 0.00 | 0.00 | 0.00 | 95 | 1003.7 |
| 20260509030917 | 78 | 208 | 0.0 | 0.0 | 0.00 | 0.00 | 0.00 | 95 | 1003.5 |
| 20260509030415 | 78 | 179 | 2.0 | 2.0 | 0.00 | 0.00 | 0.00 | 95 | 1003.4 |
| 20260509025912 | 78 | 189 | 0.0 | 0.0 | 0.00 | 0.00 | 0.00 | 95 | 1003.2 |
| 20260509025408 | 79 | 198 | 0.0 | 0.0 | 0.00 | 0.00 | 0.00 | 95 | 1003.3 |
| 20260509024903 | 78 | 200 | 0.0 | 0.0 | 0.00 | 0.00 | 0.00 | 95 | 1003.3 |
| 20260509024359 | 78 | 166 | 3.0 | 4.0 | 0.00 | 0.00 | 0.00 | 95 | 1003.3 |
| 20260509023856 | 78 | 192 | 1.0 | 2.0 | 0.00 | 0.00 | 0.00 | 95 | 1003.2 |
| 20260509023354 | 79 | 193 | 0.0 | 0.0 | 0.00 | 0.00 | 0.00 | 95 | 1003.2 |
| 20260509022850 | 79 | 201 | 0.0 | 0.0 | 0.00 | 0.00 | 0.00 | 95 | 1003.2 |
| 20260509022347 | 79 | 204 | 0.0 | 0.0 | 0.00 | 0.00 | 0.00 | 95 | 1002.8 |
| 20260509021844 | 79 | 202 | 0.0 | 0.0 | 0.00 | 0.00 | 0.00 | 95 | 1002.7 |
| 20260509021341 | 79 | 201 | 0.0 | 0.0 | 0.00 | 0.00 | 0.00 | 95 | 1002.7 |
| 20260509020839 | 79 | 130 | 1.0 | 1.0 | 0.00 | 0.00 | 0.00 | 95 | 1002.4 |
| 20260509020337 | 79 | 196 | 0.0 | 0.0 | 0.00 | 0.00 | 0.00 | 95 | 1002.5 |
| 20260509015834 | 79 | 202 | 0.0 | 1.0 | 0.00 | 0.00 | 0.00 | 95 | 1002.5 |
| 20260509015332 | 79 | 198 | 0.0 | 0.0 | 0.00 | 0.00 | 0.00 | 95 | 1002.4 |
| 20260509014829 | 79 | 145 | 1.0 | 2.0 | 0.00 | 0.00 | 0.00 | 94 | 1002.6 |
| 20260509014326 | 79 | 196 | 0.0 | 0.0 | 0.00 | 0.00 | 0.00 | 94 | 1002.3 |
| 20260509013822 | 79 | 208 | 0.0 | 1.0 | 0.00 | 0.00 | 0.00 | 94 | 1002.0 |
| 20260509013319 | 79 | 168 | 2.0 | 3.0 | 0.00 | 0.00 | 0.00 | 94 | 1002.0 |
| 20260509012815 | 79 | 162 | 1.0 | 2.0 | 0.00 | 0.00 | 0.00 | 94 | 1002.0 |
| 20260509012312 | 79 | 198 | 1.0 | 1.0 | 0.00 | 0.00 | 0.00 | 94 | 1002.0 |
| 20260509011809 | 79 | 210 | 2.0 | 3.0 | 0.00 | 0.00 | 0.00 | 94 | 1001.9 |
| 20260509011306 | 79 | 197 | 2.0 | 2.0 | 0.00 | 0.00 | 0.00 | 93 | 1002.1 |
| 20260509010804 | 80 | 200 | 0.0 | 0.0 | 0.00 | 0.00 | 0.00 | 93 | 1001.9 |
| 20260509010301 | 79 | 197 | 1.0 | 1.0 | 0.00 | 0.00 | 0.00 | 93 | 1001.7 |
| 20260509005758 | 80 | 182 | 1.0 | 2.0 | 0.00 | 0.00 | 0.00 | 93 | 1001.7 |
| 20260509005256 | 80 | 190 | 1.0 | 1.0 | 0.00 | 0.00 | 0.00 | 93 | 1001.7 |
| 20260509004755 | 80 | 196 | 0.0 | 0.0 | 0.00 | 0.00 | 0.00 | 93 | 1001.7 |
| 20260509004253 | 80 | 173 | 1.0 | 2.0 | 0.00 | 0.00 | 0.00 | 93 | 1001.8 |
| 20260509003751 | 80 | 196 | 0.0 | 0.0 | 0.00 | 0.00 | 0.00 | 93 | 1001.8 |
| 20260509003248 | 80 | 181 | 2.0 | 3.0 | 0.00 | 0.00 | 0.00 | 93 | 1001.9 |
| 20260509002745 | 80 | 182 | 1.0 | 2.0 | 0.00 | 0.00 | 0.00 | 92 | 1002.1 |
| 20260509002243 | 80 | 194 | 0.0 | 0.0 | 0.00 | 0.00 | 0.00 | 92 | 1002.0 |
| 20260509001740 | 80 | 210 | 0.0 | 0.0 | 0.00 | 0.00 | 0.00 | 92 | 1001.7 |
| 20260509001236 | 80 | 187 | 1.0 | 2.0 | 0.00 | 0.00 | 0.00 | 92 | 1001.8 |
| 20260509000734 | 80 | 203 | 0.0 | 0.0 | 0.00 | 0.00 | 0.00 | 92 | 1002.0 |
| 20260509000231 | 80 | 194 | 0.0 | 1.0 | 0.00 | 0.00 | 0.00 | 92 | 1001.7 |
| 20260508235728 | 80 | 189 | 1.0 | 1.0 | 0.00 | 0.00 | 0.00 | 91 | 1002.0 |
| 20260508235224 | 81 | 143 | 3.0 | 4.0 | 0.00 | 0.00 | 0.00 | 91 | 1002.0 |
| 20260508234721 | 80 | 200 | 0.0 | 0.0 | 0.00 | 0.00 | 0.00 | 92 | 1002.0 |
| 20260508234217 | 81 | 180 | 1.0 | 2.0 | 0.00 | 0.00 | 0.00 | 92 | 1001.9 |
| 20260508233712 | 81 | 167 | 3.0 | 4.0 | 0.00 | 0.00 | 0.00 | 91 | 1001.7 |
| 20260508233209 | 81 | 154 | 3.0 | 3.0 | 0.00 | 0.00 | 0.00 | 91 | 1001.6 |
| 20260508232706 | 81 | 210 | 2.0 | 3.0 | 0.00 | 0.00 | 0.00 | 91 | 1001.7 |
| 20260508232203 | 81 | 200 | 2.0 | 3.0 | 0.00 | 0.00 | 0.00 | 90 | 1001.8 |
| 20260508231701 | 81 | 181 | 2.0 | 3.0 | 0.00 | 0.00 | 0.00 | 90 | 1001.9 |
| 20260508231157 | 81 | 145 | 2.0 | 2.0 | 0.00 | 0.00 | 0.00 | 90 | 1001.6 |
| 20260508230654 | 81 | 204 | 4.0 | 6.0 | 0.00 | 0.00 | 0.00 | 90 | 1001.7 |
| 20260508230150 | 81 | 195 | 1.0 | 1.0 | 0.00 | 0.00 | 0.00 | 90 | 1001.8 |
| 20260508225648 | 82 | 146 | 2.0 | 3.0 | 0.00 | 0.00 | 0.00 | 90 | 1001.6 |
| 20260508225144 | 82 | 195 | 0.0 | 1.0 | 0.00 | 0.00 | 0.00 | 89 | 1001.7 |
| 20260508224642 | 82 | 177 | 3.0 | 4.0 | 0.00 | 0.00 | 0.00 | 88 | 1001.8 |
| 20260508224140 | 83 | 198 | 1.0 | 1.0 | 0.00 | 0.00 | 0.00 | 88 | 1001.8 |
| 20260508223637 | 82 | 159 | 2.0 | 3.0 | 0.00 | 0.00 | 0.00 | 88 | 1001.9 |
| 20260508223134 | 83 | 197 | 3.0 | 3.0 | 0.00 | 0.00 | 0.00 | 88 | 1001.9 |
| 20260508222631 | 83 | 165 | 3.0 | 3.0 | 0.00 | 0.00 | 0.00 | 87 | 1002.2 |
| 20260508222128 | 83 | 88 | 3.0 | 4.0 | 0.00 | 0.00 | 0.00 | 87 | 1002.3 |
| 20260508221625 | 83 | 181 | 2.0 | 3.0 | 0.00 | 0.00 | 0.00 | 87 | 1002.2 |
| 20260508221120 | 84 | 195 | 1.0 | 2.0 | 0.00 | 0.00 | 0.00 | 86 | 1002.5 |
| 20260508220617 | 84 | 202 | 2.0 | 3.0 | 0.00 | 0.00 | 0.00 | 86 | 1002.4 |
| 20260508220114 | 84 | 131 | 5.0 | 6.0 | 0.00 | 0.00 | 0.00 | 85 | 1002.6 |
| 20260508215611 | 84 | 194 | 0.0 | 1.0 | 0.00 | 0.00 | 0.00 | 86 | 1002.5 |
| 20260508215107 | 84 | 96 | 4.0 | 6.0 | 0.00 | 0.00 | 0.00 | 86 | 1002.5 |
| 20260508214605 | 84 | 172 | 5.0 | 6.0 | 0.00 | 0.00 | 0.00 | 84 | 1002.6 |
| 20260508214101 | 85 | 113 | 2.0 | 2.0 | 0.00 | 0.00 | 0.00 | 84 | 1002.6 |
| 20260508213558 | 85 | 181 | 3.0 | 6.0 | 0.00 | 0.00 | 0.00 | 84 | 1002.7 |
| 20260508213054 | 85 | 186 | 3.0 | 6.0 | 0.00 | 0.00 | 0.00 | 83 | 1002.7 |
| 20260508212551 | 85 | 178 | 2.0 | 3.0 | 0.00 | 0.00 | 0.00 | 84 | 1002.8 |
| 20260508212047 | 85 | 185 | 2.0 | 3.0 | 0.00 | 0.00 | 0.00 | 83 | 1003.0 |
| 20260508211543 | 85 | 205 | 1.0 | 2.0 | 0.00 | 0.00 | 0.00 | 83 | 1003.1 |
| 20260508211039 | 85 | 196 | 2.0 | 2.0 | 0.00 | 0.00 | 0.00 | 83 | 1002.8 |
| 20260508210536 | 85 | 190 | 2.0 | 3.0 | 0.00 | 0.00 | 0.00 | 83 | 1002.9 |
| 20260508210034 | 86 | 175 | 4.0 | 7.0 | 0.00 | 0.00 | 0.00 | 82 | 1003.0 |
| 20260508205530 | 86 | 188 | 1.0 | 1.0 | 0.00 | 0.00 | 0.00 | 82 | 1002.9 |
| 20260508205026 | 86 | 163 | 1.0 | 2.0 | 0.00 | 0.00 | 0.00 | 82 | 1002.9 |
| 20260508204524 | 87 | 177 | 3.0 | 4.0 | 0.00 | 0.00 | 0.00 | 81 | 1003.3 |
| 20260508204019 | 87 | 184 | 3.0 | 4.0 | 0.00 | 0.00 | 0.00 | 80 | 1003.2 |
| 20260508203515 | 87 | 189 | 1.0 | 1.0 | 0.00 | 0.00 | 0.00 | 80 | 1003.3 |
| 20260508203012 | 89 | 205 | 1.0 | 2.0 | 0.00 | 0.00 | 0.00 | 77 | 1003.1 |
| 20260508202509 | 90 | 205 | 1.0 | 1.0 | 0.00 | 0.00 | 0.00 | 77 | 1003.3 |
| 20260508202006 | 89 | 204 | 0.0 | 1.0 | 0.00 | 0.00 | 0.00 | 76 | 1003.5 |
| 20260508201502 | 89 | 208 | 1.0 | 1.0 | 0.00 | 0.00 | 0.00 | 76 | 1003.3 |
| 20260508200959 | 89 | 212 | 1.0 | 2.0 | 0.00 | 0.00 | 0.00 | 78 | 1003.5 |
| 20260508200456 | 89 | 28 | 2.0 | 3.0 | 0.00 | 0.00 | 0.00 | 77 | 1003.6 |
| 20260508195950 | 88 | 257 | 2.0 | 3.0 | 0.00 | 0.00 | 0.00 | 78 | 1003.5 |
| 20260508195448 | 89 | 194 | 2.0 | 3.0 | 0.00 | 0.00 | 0.00 | 77 | 1003.6 |
| 20260508194944 | 88 | 197 | 1.0 | 1.0 | 0.00 | 0.00 | 0.00 | 79 | 1003.6 |
| 20260508194442 | 88 | 195 | 2.0 | 3.0 | 0.00 | 0.00 | 0.00 | 80 | 1003.7 |
| 20260508193938 | 87 | 225 | 1.0 | 2.0 | 0.00 | 0.00 | 0.00 | 81 | 1004.0 |
| 20260508193435 | 86 | 162 | 2.0 | 3.0 | 0.00 | 0.00 | 0.00 | 83 | 1004.0 |
| 20260508192932 | 86 | 238 | 1.0 | 1.0 | 0.00 | 0.00 | 0.00 | 83 | 1004.2 |
| 20260508192429 | 86 | 207 | 1.0 | 2.0 | 0.00 | 0.00 | 0.00 | 83 | 1004.0 |
| 20260508191925 | 85 | 130 | 2.0 | 3.0 | 0.00 | 0.00 | 0.00 | 85 | 1004.3 |
| 20260508191423 | 86 | 156 | 2.0 | 3.0 | 0.00 | 0.00 | 0.00 | 83 | 1004.3 |
| 20260508190920 | 87 | 173 | 3.0 | 6.0 | 0.00 | 0.00 | 0.00 | 82 | 1004.3 |
| 20260508190417 | 86 | 182 | 3.0 | 4.0 | 0.00 | 0.00 | 0.00 | 81 | 1004.4 |
| 20260508185913 | 86 | 314 | 2.0 | 2.0 | 0.00 | 0.00 | 0.00 | 82 | 1004.5 |
| 20260508185410 | 88 | 189 | 2.0 | 3.0 | 0.00 | 0.00 | 0.00 | 80 | 1004.6 |
| 20260508184908 | 87 | 203 | 1.0 | 1.0 | 0.00 | 0.00 | 0.00 | 79 | 1004.7 |
| 20260508184405 | 88 | 30 | 4.0 | 6.0 | 0.00 | 0.00 | 0.00 | 79 | 1004.7 |
| 20260508183901 | 89 | 179 | 3.0 | 6.0 | 0.00 | 0.00 | 0.00 | 77 | 1004.6 |
| 20260508183358 | 88 | 77 | 2.0 | 3.0 | 0.00 | 0.00 | 0.00 | 78 | 1004.8 |
| 20260508182853 | 87 | 227 | 0.0 | 1.0 | 0.00 | 0.00 | 0.00 | 79 | 1004.7 |
| 20260508182351 | 87 | 210 | 1.0 | 2.0 | 0.00 | 0.00 | 0.00 | 80 | 1005.1 |
| 20260508181846 | 86 | 208 | 1.0 | 2.0 | 0.00 | 0.00 | 0.00 | 81 | 1005.2 |
| 20260508181343 | 85 | 208 | 1.0 | 1.0 | 0.00 | 0.00 | 0.00 | 83 | 1005.4 |
| 20260508180840 | 84 | 207 | 0.0 | 0.0 | 0.00 | 0.00 | 0.00 | 85 | 1005.3 |
| 20260508180337 | 84 | 9 | 2.0 | 3.0 | 0.00 | 0.00 | 0.00 | 84 | 1005.5 |
| 20260508175833 | 85 | 205 | 2.0 | 2.0 | 0.00 | 0.00 | 0.00 | 81 | 1005.5 |
| 20260508175330 | 85 | 282 | 4.0 | 6.0 | 0.00 | 0.00 | 0.00 | 82 | 1005.3 |
| 20260508174828 | 84 | 96 | 1.0 | 2.0 | 0.00 | 0.00 | 0.00 | 84 | 1005.6 |
| 20260508174325 | 85 | 298 | 3.0 | 4.0 | 0.00 | 0.00 | 0.00 | 82 | 1005.7 |
| 20260508173821 | 85 | 173 | 3.0 | 3.0 | 0.00 | 0.00 | 0.00 | 82 | 1005.6 |
| 20260508173319 | 84 | 15 | 2.0 | 2.0 | 0.00 | 0.00 | 0.00 | 84 | 1006.0 |
| 20260508172814 | 84 | 193 | 1.0 | 1.0 | 0.00 | 0.00 | 0.00 | 84 | 1005.8 |
| 20260508172312 | 83 | 201 | 0.0 | 1.0 | 0.00 | 0.00 | 0.00 | 85 | 1005.7 |
| 20260508171808 | 83 | 215 | 0.0 | 1.0 | 0.00 | 0.00 | 0.00 | 86 | 1006.0 |
| 20260508171304 | 83 | 342 | 6.0 | 7.0 | 0.00 | 0.00 | 0.00 | 85 | 1006.0 |
| 20260508170801 | 83 | 342 | 4.0 | 4.0 | 0.00 | 0.00 | 0.00 | 85 | 1006.0 |
| 20260508170259 | 83 | 281 | 2.0 | 3.0 | 0.00 | 0.00 | 0.00 | 84 | 1005.9 |
| 20260508165755 | 83 | 359 | 1.0 | 3.0 | 0.00 | 0.00 | 0.00 | 85 | 1006.0 |
| 20260508165253 | 82 | 347 | 3.0 | 3.0 | 0.00 | 0.00 | 0.00 | 86 | 1006.2 |
| 20260508164749 | 83 | 237 | 1.0 | 1.0 | 0.00 | 0.00 | 0.00 | 84 | 1006.2 |
| 20260508164246 | 83 | 177 | 1.0 | 2.0 | 0.00 | 0.00 | 0.00 | 85 | 1006.2 |
| 20260508163744 | 82 | 6 | 2.0 | 4.0 | 0.00 | 0.00 | 0.00 | 86 | 1006.3 |
| 20260508163242 | 82 | 236 | 2.0 | 3.0 | 0.00 | 0.00 | 0.00 | 84 | 1006.2 |
| 20260508162737 | 82 | 182 | 1.0 | 1.0 | 0.00 | 0.00 | 0.00 | 85 | 1006.4 |
| 20260508162234 | 80 | 227 | 1.0 | 1.0 | 0.00 | 0.00 | 0.00 | 87 | 1006.4 |
| 20260508161731 | 80 | 122 | 2.0 | 2.0 | 0.00 | 0.00 | 0.00 | 87 | 1006.6 |
| 20260508161228 | 80 | 246 | 2.0 | 3.0 | 0.00 | 0.00 | 0.00 | 87 | 1006.6 |
| 20260508160726 | 80 | 252 | 1.0 | 1.0 | 0.00 | 0.00 | 0.00 | 88 | 1006.8 |
| 20260508160225 | 80 | 344 | 3.0 | 4.0 | 0.00 | 0.00 | 0.00 | 88 | 1006.6 |
| 20260508155720 | 79 | 21 | 2.0 | 4.0 | 0.00 | 0.00 | 0.00 | 89 | 1006.7 |
| 20260508155218 | 77 | 17 | 3.0 | 4.0 | 0.00 | 0.00 | 0.00 | 90 | 1006.7 |
| 20260508154714 | 78 | 194 | 1.0 | 1.0 | 0.00 | 0.00 | 0.00 | 91 | 1006.6 |
| 20260508154211 | 76 | 231 | 1.0 | 2.0 | 0.00 | 0.00 | 0.00 | 92 | 1006.6 |
| 20260508153708 | 76 | 6 | 1.0 | 2.0 | 0.00 | 0.00 | 0.00 | 92 | 1006.4 |
| 20260508153205 | 75 | 207 | 0.0 | 1.0 | 0.00 | 0.00 | 0.00 | 92 | 1006.6 |
| 20260508152702 | 75 | 201 | 0.0 | 0.0 | 0.00 | 0.00 | 0.00 | 92 | 1006.7 |
| 20260508152157 | 75 | 326 | 2.0 | 4.0 | 0.00 | 0.00 | 0.00 | 92 | 1006.7 |
| 20260508151654 | 75 | 331 | 2.0 | 2.0 | 0.00 | 0.00 | 0.00 | 92 | 1006.6 |
| 20260508151151 | 75 | 341 | 1.0 | 2.0 | 0.00 | 0.00 | 0.00 | 91 | 1006.6 |
| 20260508150648 | 75 | 72 | 1.0 | 2.0 | 0.00 | 0.00 | 0.00 | 92 | 1006.8 |
| 20260508150144 | 74 | 9 | 2.0 | 2.0 | 0.00 | 0.00 | 0.00 | 93 | 1007.2 |
| 20260508145640 | 73 | 242 | 1.0 | 2.0 | 0.00 | 0.00 | 0.00 | 93 | 1007.2 |
| 20260508145137 | 73 | 249 | 0.0 | 1.0 | 0.00 | 0.00 | 0.00 | 93 | 1007.3 |
| 20260508144634 | 73 | 186 | 0.0 | 1.0 | 0.00 | 0.00 | 0.00 | 94 | 1007.4 |
| 20260508144132 | 73 | 222 | 1.0 | 1.0 | 0.00 | 0.00 | 0.00 | 94 | 1007.4 |
| 20260508143629 | 72 | 196 | 0.0 | 0.0 | 0.00 | 0.00 | 0.00 | 94 | 1007.4 |
| 20260508143126 | 72 | 224 | 0.0 | 1.0 | 0.00 | 0.00 | 0.00 | 94 | 1007.8 |
| 20260508142622 | 72 | 128 | 1.0 | 2.0 | 0.00 | 0.00 | 0.00 | 94 | 1007.8 |
| 20260508142119 | 72 | 44 | 2.0 | 3.0 | 0.00 | 0.00 | 0.00 | 94 | 1007.9 |
| 20260508141616 | 72 | 223 | 0.0 | 0.0 | 0.00 | 0.00 | 0.00 | 94 | 1007.8 |
| 20260508141113 | 72 | 227 | 2.0 | 3.0 | 0.00 | 0.00 | 0.00 | 94 | 1008.0 |
| 20260508140610 | 71 | 225 | 1.0 | 1.0 | 0.00 | 0.00 | 0.00 | 94 | 1008.0 |
| 20260508140107 | 71 | 210 | 0.0 | 0.0 | 0.00 | 0.00 | 0.00 | 94 | 1007.9 |
| 20260508135602 | 71 | 26 | 1.0 | 2.0 | 0.00 | 0.00 | 0.00 | 93 | 1007.8 |
| 20260508135059 | 71 | 247 | 0.0 | 1.0 | 0.00 | 0.00 | 0.00 | 93 | 1007.6 |
| 20260508134556 | 71 | 106 | 2.0 | 2.0 | 0.00 | 0.00 | 0.00 | 93 | 1007.7 |
| 20260508134053 | 71 | 249 | 0.0 | 1.0 | 0.00 | 0.00 | 0.00 | 93 | 1007.4 |
| 20260508133549 | 71 | 215 | 0.0 | 0.0 | 0.00 | 0.00 | 0.00 | 93 | 1007.5 |
| 20260508133046 | 70 | 214 | 0.0 | 1.0 | 0.00 | 0.00 | 0.00 | 93 | 1007.7 |
| 20260508132539 | 70 | 209 | 0.0 | 0.0 | 0.00 | 0.00 | 0.00 | 93 | 1007.5 |
| 20260508132035 | 70 | 342 | 2.0 | 6.0 | 0.00 | 0.00 | 0.00 | 94 | 1008.0 |
| 20260508131531 | 69 | 223 | 1.0 | 2.0 | 0.00 | 0.00 | 0.00 | 94 | 1008.0 |
| 20260508131028 | 69 | 193 | 2.0 | 3.0 | 0.00 | 0.00 | 0.00 | 94 | 1007.8 |
| 20260508130525 | 69 | 284 | 3.0 | 3.0 | 0.00 | 0.00 | 0.00 | 95 | 1008.0 |
| 20260508130021 | 69 | 229 | 3.0 | 4.0 | 0.00 | 0.00 | 0.00 | 95 | 1008.2 |
| 20260508125517 | 69 | 289 | 3.0 | 3.0 | 0.00 | 0.00 | 0.00 | 95 | 1007.9 |
| 20260508125015 | 69 | 261 | 2.0 | 3.0 | 0.00 | 0.00 | 0.00 | 95 | 1007.8 |
| 20260508124513 | 69 | 242 | 2.0 | 3.0 | 0.00 | 0.00 | 0.00 | 96 | 1007.8 |
| 20260508124010 | 68 | 338 | 2.0 | 3.0 | 0.00 | 0.00 | 0.00 | 96 | 1007.5 |
| 20260508123508 | 68 | 294 | 2.0 | 3.0 | 0.00 | 0.00 | 0.00 | 97 | 1007.5 |
| 20260508123004 | 68 | 320 | 2.0 | 2.0 | 0.00 | 0.00 | 0.00 | 98 | 1007.6 |
| 20260508122502 | 68 | 320 | 2.0 | 2.0 | 0.00 | 0.00 | 0.00 | 98 | 1007.6 |
| 20260508121958 | 69 | 320 | 2.0 | 3.0 | 0.00 | 0.00 | 0.00 | 98 | 1007.6 |
| 20260508121456 | 69 | 321 | 2.0 | 2.0 | 0.00 | 0.00 | 0.00 | 99 | 1007.4 |
| 20260508120954 | 69 | 321 | 4.0 | 6.0 | 0.00 | 0.00 | 0.00 | 99 | 1007.2 |
| 20260508120451 | 69 | 321 | 3.0 | 4.0 | 0.00 | 0.00 | 0.00 | 99 | 1007.3 |
| 20260508115949 | 69 | 322 | 2.0 | 3.0 | 0.00 | 0.00 | 0.00 | 99 | 1007.2 |
| 20260508115447 | 69 | 322 | 2.0 | 3.0 | 0.00 | 0.00 | 0.00 | 99 | 1007.2 |
| 20260508114943 | 70 | 321 | 0.0 | 0.0 | 0.00 | 0.00 | 0.00 | 99 | 1007.0 |
| 20260508114440 | 71 | 321 | 2.0 | 3.0 | 0.00 | 0.00 | 0.00 | 99 | 1007.0 |
| 20260508113937 | 71 | 321 | 2.0 | 2.0 | 0.00 | 0.00 | 0.00 | 99 | 1006.8 |
| 20260508113434 | 70 | 320 | 1.0 | 2.0 | 0.00 | 0.00 | 0.00 | 99 | 1006.8 |
| 20260508112931 | 70 | 320 | 2.0 | 3.0 | 0.00 | 0.00 | 0.00 | 99 | 1006.6 |
| 20260508112428 | 70 | 320 | 5.0 | 7.0 | 0.00 | 0.00 | 0.00 | 99 | 1006.8 |
| 20260508111925 | 71 | 320 | 6.0 | 8.0 | 0.00 | 0.00 | 0.00 | 99 | 1006.5 |
| 20260508111422 | 71 | 320 | 1.0 | 2.0 | 0.00 | 0.00 | 0.00 | 99 | 1006.5 |
| 20260508110919 | 71 | 320 | 2.0 | 3.0 | 0.00 | 0.00 | 0.00 | 99 | 1006.4 |
| 20260508110416 | 71 | 320 | 1.0 | 2.0 | 0.00 | 0.00 | 0.00 | 99 | 1006.4 |
| 20260508105910 | 71 | 320 | 0.0 | 0.0 | 0.00 | 0.00 | 0.00 | 99 | 1006.4 |
| 20260508105407 | 71 | 317 | 1.0 | 2.0 | 0.00 | 0.00 | 0.00 | 99 | 1006.3 |
| 20260508104904 | 71 | 302 | 0.0 | 0.0 | 0.00 | 0.00 | 0.00 | 99 | 1006.3 |
| 20260508104401 | 71 | 277 | 1.0 | 1.0 | 0.00 | 0.00 | 0.00 | 99 | 1006.2 |
| 20260508103858 | 71 | 311 | 0.0 | 1.0 | 0.00 | 0.00 | 0.00 | 99 | 1005.8 |
| 20260508103355 | 71 | 288 | 1.0 | 2.0 | 0.00 | 0.00 | 0.00 | 99 | 1006.1 |
| 20260508102852 | 71 | 300 | 1.0 | 1.0 | 0.00 | 0.00 | 0.00 | 99 | 1005.8 |
| 20260508102351 | 71 | 166 | 0.0 | 0.0 | 0.00 | 0.00 | 0.00 | 99 | 1005.9 |
| 20260508101848 | 71 | 253 | 1.0 | 1.0 | 0.00 | 0.00 | 0.00 | 99 | 1006.0 |
| 20260508101345 | 71 | 231 | 1.0 | 1.0 | 0.00 | 0.00 | 0.00 | 99 | 1005.9 |
| 20260508100842 | 71 | 36 | 0.0 | 0.0 | 0.00 | 0.00 | 0.00 | 99 | 1006.2 |
| 20260508100341 | 71 | 228 | 0.0 | 1.0 | 0.00 | 0.00 | 0.00 | 99 | 1006.7 |
| 20260508095836 | 71 | 295 | 2.0 | 3.0 | 0.00 | 0.00 | 0.00 | 99 | 1006.7 |
| 20260508095334 | 71 | 204 | 0.0 | 1.0 | 0.00 | 0.00 | 0.00 | 99 | 1006.6 |
| 20260508094831 | 71 | 247 | 1.0 | 2.0 | 0.00 | 0.00 | 0.00 | 99 | 1006.7 |
| 20260508094328 | 71 | 266 | 1.0 | 2.0 | 0.00 | 0.00 | 0.00 | 99 | 1006.6 |
| 20260508093825 | 71 | 244 | 0.0 | 0.0 | 0.00 | 0.00 | 0.00 | 99 | 1006.8 |
| 20260508093322 | 71 | 236 | 0.0 | 0.0 | 0.00 | 0.00 | 0.00 | 99 | 1006.7 |
| 20260508092820 | 71 | 246 | 1.0 | 2.0 | 0.00 | 0.00 | 0.00 | 99 | 1006.5 |
| 20260508092318 | 72 | 257 | 2.0 | 3.0 | 0.00 | 0.00 | 0.00 | 99 | 1006.7 |
| 20260508091816 | 72 | 228 | 2.0 | 3.0 | 0.00 | 0.00 | 0.00 | 99 | 1006.8 |
| 20260508091311 | 72 | 225 | 0.0 | 0.0 | 0.00 | 0.00 | 0.00 | 99 | 1006.9 |
| 20260508090810 | 73 | 283 | 0.0 | 0.0 | 0.00 | 0.00 | 0.00 | 99 | 1007.1 |
| 20260508090308 | 73 | 260 | 0.0 | 0.0 | 0.00 | 0.00 | 0.00 | 99 | 1007.0 |
| 20260508085803 | 73 | 285 | 2.0 | 2.0 | 0.00 | 0.00 | 0.00 | 99 | 1007.0 |
| 20260508085300 | 73 | 281 | 1.0 | 2.0 | 0.00 | 0.00 | 0.00 | 99 | 1006.9 |
| 20260508084756 | 73 | 242 | 1.0 | 1.0 | 0.00 | 0.00 | 0.00 | 99 | 1006.8 |
| 20260508084254 | 73 | 266 | 2.0 | 2.0 | 0.00 | 0.00 | 0.00 | 99 | 1006.9 |
| 20260508083751 | 73 | 286 | 1.0 | 2.0 | 0.00 | 0.00 | 0.00 | 99 | 1006.8 |
| 20260508083249 | 73 | 264 | 2.0 | 2.0 | 0.00 | 0.00 | 0.00 | 99 | 1006.8 |
| 20260508082748 | 73 | 222 | 0.0 | 0.0 | 0.00 | 0.00 | 0.00 | 99 | 1006.7 |
| 20260508082246 | 73 | 215 | 0.0 | 0.0 | 0.00 | 0.00 | 0.00 | 99 | 1006.8 |
| 20260508081743 | 73 | 287 | 0.0 | 2.0 | 0.00 | 0.00 | 0.00 | 99 | 1007.1 |
| 20260508081240 | 73 | 233 | 0.0 | 0.0 | 0.00 | 0.00 | 0.00 | 99 | 1007.4 |
| 20260508080737 | 73 | 248 | 0.0 | 0.0 | 0.00 | 0.00 | 0.00 | 99 | 1007.6 |
| 20260508080235 | 73 | 234 | 0.0 | 0.0 | 0.00 | 0.00 | 0.00 | 99 | 1007.8 |
| 20260508075731 | 73 | 219 | 0.0 | 0.0 | 0.00 | 0.00 | 0.00 | 99 | 1007.8 |
| 20260508075228 | 73 | 229 | 0.0 | 0.0 | 0.00 | 0.00 | 0.00 | 99 | 1007.7 |
| 20260508074726 | 73 | 210 | 0.0 | 0.0 | 0.00 | 0.00 | 0.00 | 99 | 1007.7 |
| 20260508074223 | 73 | 200 | 0.0 | 0.0 | 0.00 | 0.00 | 0.00 | 99 | 1007.5 |
| 20260508073720 | 73 | 213 | 0.0 | 0.0 | 0.00 | 0.00 | 0.00 | 99 | 1007.7 |
| 20260508073218 | 73 | 205 | 0.0 | 0.0 | 0.00 | 0.00 | 0.00 | 99 | 1007.7 |
| 20260508072714 | 73 | 218 | 0.0 | 0.0 | 0.00 | 0.00 | 0.00 | 99 | 1007.8 |
| 20260508072211 | 73 | 218 | 0.0 | 0.0 | 0.00 | 0.00 | 0.00 | 99 | 1007.8 |
| 20260508071708 | 73 | 216 | 0.0 | 0.0 | 0.00 | 0.00 | 0.00 | 99 | 1007.9 |
| 20260508071206 | 73 | 218 | 0.0 | 0.0 | 0.00 | 0.00 | 0.00 | 99 | 1008.0 |
| 20260508070703 | 73 | 218 | 0.0 | 0.0 | 0.00 | 0.00 | 0.00 | 99 | 1008.1 |
| 20260508070202 | 73 | 212 | 0.0 | 0.0 | 0.00 | 0.00 | 0.00 | 99 | 1007.7 |
| 20260508065659 | 73 | 213 | 0.0 | 0.0 | 0.00 | 0.00 | 0.00 | 99 | 1007.8 |
| 20260508065157 | 73 | 215 | 0.0 | 0.0 | 0.00 | 0.00 | 0.00 | 99 | 1007.8 |
| 20260508064654 | 73 | 29 | 2.0 | 3.0 | 0.00 | 0.00 | 0.00 | 99 | 1007.6 |
| 20260508064152 | 73 | 47 | 3.0 | 3.0 | 0.00 | 0.00 | 0.00 | 99 | 1007.8 |
| 20260508063649 | 73 | 202 | 0.0 | 0.0 | 0.00 | 0.00 | 0.00 | 99 | 1008.1 |
| 20260508063147 | 73 | 219 | 0.0 | 0.0 | 0.00 | 0.00 | 0.00 | 99 | 1008.2 |
| 20260508062644 | 73 | 210 | 0.0 | 0.0 | 0.00 | 0.00 | 0.00 | 99 | 1008.2 |
| 20260508062141 | 73 | 196 | 0.0 | 1.0 | 0.00 | 0.00 | 0.00 | 98 | 1008.5 |
| 20260508061638 | 74 | 142 | 1.0 | 2.0 | 0.00 | 0.00 | 0.00 | 98 | 1008.4 |